Regional Weather Roundup
Issued by NWS

Home | Current Version | Previous Version | Text Only | Print | Product List | Glossary On
Versions: 1 2 3 4 5 6 7 8 9 10 11 12 13 14 15 16 17 18 19 20 21 22 23 24 25 26 27 28 29 30 31 32 33 34 35 36 37 38 39 40 41 42 43 44 45 46 47 48 49 50
000
ASUS45 KSLC 240410
RWRUT

UTAH REGIONAL WEATHER ROUNDUP
NATIONAL WEATHER SERVICE SALT LAKE CITY UT
1000 PM MDT WED MAY 23 2018

UTZ001>011-023>025-240500-

NORTHERN UTAH

CITY           SKY/WX    TMP DP  RH WIND       PRES   REMARKS
BRIGHAM CITY   PTCLDY    65  45  49 N6        30.01R
HILL AFB       PTCLDY    65  42  43 CALM      30.03R
LOGAN          MOCLDY    57  50  77 CALM      30.01R
OGDEN          PTCLDY    63  42  46 SE5       30.00R
SALT LAKE CITY PTCLDY    62  49  62 SW5       29.99R
TOOELE VALLEY  CLEAR     55  45  67 S7        30.01R
WENDOVER       PTCLDY    65  48  54 NW3       29.99R
HEBER CITY       N/A     50  43  76 E3        30.08R
WEST JORDAN    PTCLDY    58  47  67 W5        30.03R

$$

UTZ011>015-024>027-240500-

CENTRAL/NORTHEAST UTAH

CITY           SKY/WX    TMP DP  RH WIND       PRES   REMARKS
PROVO AIRPORT  PTCLDY    62  44  51 CALM      30.03R
MOAB/CANYONLAN CLEAR     69  23  17 CALM      29.96R
DELTA          PTCLDY    61  41  48 E3        30.02S
PRICE          MOCLDY    60  38  43 N12       30.08S
ROOSEVELT      MOCLDY    59  39  47 W6        30.09S
VERNAL         PTCLDY    60  37  42 W7        30.07R

$$

UTZ013>016-019>022-027-240500-

SOUTHERN UTAH

CITY           SKY/WX    TMP DP  RH WIND       PRES   REMARKS
BRYCE CANYON   CLEAR     43  27  53 W8        30.19R
CEDAR CITY     CLEAR     62  28  27 S5        30.06R
MILFORD        CLEAR     59  38  45 NW8       30.02R
ST GEORGE      PTCLDY    80  30  16 W8        29.91R
HANKSVILLE     PTCLDY    73  30  20 NW7       30.00R
BLANDING         N/A     58  24  26 NW7       30.14R

$$

REGIONAL REPORTS     COLORADO/ARIZONA

CITY           SKY/WX    TMP DP  RH WIND       PRES   REMARKS
CRAIG, CO      CLEAR     50  36  58 S9        30.12R
GRAND JUNCTION CLEAR     69  22  16 N8        30.00R
RIFLE, CO      CLEAR     60  28  29 SE7       30.05R
MONTROSE, CO   CLEAR     59  22  24 SE9       30.08R
CORTEZ, CO     CLEAR     53  27  36 NE6       30.08R
COLORADO CITY    N/A     68  32  26 N6        30.05R
PAGE, AZ       CLEAR     78  24  13 NW3       29.96R
GRAND CANYON   CLEAR     56  17  21 SW8       30.16R
KINGMAN, AZ    CLEAR     70  23  17 SW6       29.98R
FLAGSTAFF, AZ  CLEAR     51  22  31 SW6       30.20R

$$

REGIONAL REPORTS    NEVADA/IDAHO/WYOMING

CITY           SKY/WX    TMP DP  RH WIND       PRES   REMARKS
LAS VEGAS, NV  CLEAR     85  31  14 S12G18    29.85R
ELY, NY        CLEAR     50  39  66 CALM      30.08R
ELKO, NV       PTCLDY    62  45  53 SE5       30.00R
POCATELLO, ID  CLOUDY    58  50  75 E3        30.00R
BURLEY, ID     MOCLDY    64  47  53 S13       29.96R
FORT BRIDGER,    N/A     51  41  68 SW8       30.17R
EVANSTON, WY   PTCLDY    49  41  74 SW8       30.15R
ROCK SPRINGS,  PTCLDY    51  37  58 SW12      30.14R
KEMMERER, WY   PTCLDY    48  36  61 W6        30.15R

$$



USA.gov is the U.S. government's official web portal to all federal, state and local government web resources and services.